GW4097 Weather Reports


Display with metric or nautical units.
time (UTC)temp
F
wind
direction
speed
MPH
gust
MPH
rain 1hr
in
rain 24hr
in
rain mn
in
humidity
%
barometer
mb
20260504150958 49 266 13.0 14.0 0.00 0.00 0.00 57 1017.6
20260504150455 49 275 11.0 13.0 0.00 0.00 0.00 58 1017.7
20260504140922 47 262 11.0 13.0 0.00 0.00 0.00 63 1017.7
20260504140418 47 271 10.0 11.0 0.00 0.00 0.00 63 1017.6
20260504130343 45 277 7.0 8.0 0.00 0.00 0.00 66 1017.6
20260504120301 44 271 6.0 7.0 0.00 0.00 0.00 65 1017.6
20260504110224 44 283 4.0 4.0 0.00 0.00 0.00 66 1017.9
20260504100142 46 2 7.0 8.0 0.00 0.00 0.00 61 1018.2
20260504090105 47 5 5.0 7.0 0.00 0.00 0.00 57 1017.7
20260504081535 50 352 11.0 13.0 0.00 0.00 0.00 51 1017.2
20260504081031 50 12 10.0 11.0 0.00 0.00 0.00 51 1017.0
20260504080528 50 7 10.0 11.0 0.00 0.00 0.00 51 1016.8
20260504050347 55 33 9.0 10.0 0.00 0.00 0.00 43 1011.7
20260504045844 55 3 7.0 9.0 0.00 0.00 0.00 43 1011.7
20260504045343 55 37 4.0 6.0 0.00 0.00 0.00 43 1011.4
20260504044841 56 24 4.0 6.0 0.00 0.00 0.00 42 1011.4
20260504044338 56 41 4.0 7.0 0.00 0.00 0.00 42 1011.3
20260504043836 56 14 5.0 6.0 0.00 0.00 0.00 42 1011.2
20260504043332 56 9 5.0 7.0 0.00 0.00 0.00 42 1010.9
20260504042829 56 39 5.0 6.0 0.00 0.00 0.00 41 1011.0
20260504042325 57 37 6.0 7.0 0.00 0.00 0.00 40 1010.8
20260504041822 57 26 6.0 7.0 0.00 0.00 0.00 40 1010.6
20260504041318 58 18 5.0 6.0 0.00 0.00 0.00 39 1010.6
20260504040814 59 13 6.0 7.0 0.00 0.00 0.00 39 1010.6
20260504040313 59 358 10.0 15.0 0.00 0.00 0.00 38 1010.6
20260504035808 59 16 8.0 11.0 0.00 0.06 0.06 38 1010.4
20260504035305 60 3 9.0 11.0 0.00 0.06 0.06 37 1010.2
20260504034803 60 30 6.0 7.0 0.00 0.06 0.06 37 1010.0
20260504034300 60 55 9.0 10.0 0.00 0.06 0.06 36 1009.8
20260504033757 61 58 7.0 11.0 0.00 0.06 0.06 35 1009.8
20260504033255 61 31 8.0 10.0 0.00 0.06 0.06 34 1009.6
20260504032751 60 33 5.0 6.0 0.00 0.06 0.06 34 1009.5
20260504032248 59 32 5.0 6.0 0.00 0.06 0.06 33 1009.6
20260504031745 60 17 5.0 6.0 0.00 0.06 0.06 32 1009.5
20260504031243 62 18 7.0 8.0 0.00 0.06 0.06 31 1009.3
20260504030738 63 348 7.0 7.0 0.00 0.06 0.06 29 1009.1
20260504030236 63 0 5.0 7.0 0.00 0.06 0.06 28 1009.2
20260504025732 63 356 5.0 6.0 0.00 0.06 0.06 29 1009.1
20260504025229 63 358 5.0 6.0 0.00 0.06 0.06 28 1009.1
20260504024726 63 357 4.0 4.0 0.00 0.06 0.06 29 1009.1
20260504024222 64 4 5.0 6.0 0.00 0.06 0.06 28 1009.1
20260504023719 63 359 6.0 7.0 0.00 0.06 0.06 29 1009.1
20260504023215 62 2 5.0 6.0 0.00 0.06 0.06 30 1008.9
20260504022712 64 353 3.0 3.0 0.00 0.06 0.06 29 1009.1
20260504022208 65 2 5.0 6.0 0.00 0.06 0.06 28 1008.9
20260504021706 66 351 3.0 4.0 0.00 0.06 0.06 28 1009.0
20260504021202 67 5 6.0 7.0 0.00 0.06 0.06 27 1009.1
20260504020659 68 6 6.0 7.0 0.00 0.06 0.06 26 1008.9
20260504020155 68 7 8.0 9.0 0.00 0.06 0.06 26 1009.0
20260504015652 69 356 8.0 9.0 0.00 0.06 0.06 26 1009.0
20260504015148 70 359 9.0 10.0 0.00 0.06 0.06 25 1008.8
20260504014644 70 7 9.0 9.0 0.00 0.06 0.06 25 1008.8
20260504014142 71 17 10.0 11.0 0.00 0.06 0.06 24 1008.8
20260504013639 71 358 6.0 7.0 0.00 0.06 0.06 25 1008.8
20260504013136 71 27 4.0 4.0 0.00 0.06 0.06 25 1008.9
20260504012633 72 0 8.0 9.0 0.00 0.06 0.06 24 1008.8
20260504012131 73 6 8.0 9.0 0.00 0.06 0.06 23 1008.8
20260504011627 73 11 10.0 11.0 0.00 0.06 0.06 23 1008.9
20260504011124 73 346 11.0 11.0 0.00 0.06 0.06 23 1008.9
20260504010620 74 6 9.0 9.0 0.00 0.06 0.06 22 1009.0
20260504010116 74 0 8.0 9.0 0.00 0.06 0.06 22 1009.1
20260504005613 74 326 7.0 10.0 0.00 0.06 0.06 22 1008.9
20260504005110 75 300 9.0 11.0 0.00 0.06 0.06 22 1009.2
20260504004608 75 305 7.0 9.0 0.00 0.06 0.06 22 1009.0
20260504004105 75 355 9.0 11.0 0.00 0.06 0.06 21 1009.1
20260504003601 75 333 6.0 7.0 0.00 0.06 0.06 22 1009.2
20260504003058 75 305 13.0 15.0 0.00 0.06 0.06 21 1009.5
20260504002555 75 315 9.0 10.0 0.00 0.06 0.06 22 1009.3
20260504002052 75 313 7.0 10.0 0.00 0.06 0.06 21 1009.3
20260504001550 75 301 8.0 9.0 0.00 0.06 0.06 22 1009.3
20260504001045 75 335 9.0 11.0 0.00 0.06 0.06 22 1009.5
20260504000543 75 334 10.0 10.0 0.00 0.06 0.06 21 1009.7
20260504000040 75 326 9.0 14.0 0.00 0.06 0.06 21 1009.6
20260503235538 75 298 11.0 14.0 0.00 0.06 0.06 21 1009.6
20260503235035 75 311 7.0 10.0 0.00 0.06 0.06 22 1009.6
20260503234532 75 310 7.0 10.0 0.00 0.06 0.06 22 1009.8
20260503234026 74 297 6.0 7.0 0.00 0.06 0.06 21 1009.8
20260503233521 75 319 9.0 10.0 0.00 0.06 0.06 21 1009.7
20260503233018 74 330 10.0 11.0 0.00 0.06 0.06 22 1009.6
20260503232515 75 307 8.0 9.0 0.00 0.06 0.06 22 1009.8
20260503232012 74 268 11.0 11.0 0.00 0.06 0.06 22 1009.8
20260503231509 75 281 15.0 17.0 0.00 0.06 0.06 21 1009.7
20260503231006 74 303 5.0 8.0 0.00 0.06 0.06 23 1010.0
20260503230502 74 298 8.0 9.0 0.00 0.06 0.06 23 1010.2
20260503230000 75 281 12.0 16.0 0.00 0.06 0.06 22 1009.9
20260503225457 75 339 11.0 13.0 0.00 0.06 0.06 22 1010.1
20260503224952 74 329 4.0 6.0 0.00 0.06 0.06 22 1010.0
20260503224449 75 323 11.0 13.0 0.00 0.06 0.06 22 1010.1
20260503223947 75 306 7.0 9.0 0.00 0.06 0.06 22 1010.2
20260503223445 75 311 11.0 13.0 0.00 0.06 0.06 22 1010.1
20260503222940 75 287 13.0 16.0 0.00 0.06 0.06 21 1010.2
20260503222439 74 321 13.0 15.0 0.00 0.06 0.06 23 1010.1
20260503221936 74 293 6.0 8.0 0.00 0.06 0.06 22 1010.3
20260503221434 75 307 9.0 10.0 0.00 0.06 0.06 23 1010.6
20260503220931 75 306 9.0 9.0 0.00 0.06 0.06 22 1010.4
20260503220427 74 291 9.0 10.0 0.00 0.06 0.06 22 1010.8
20260503215924 74 314 16.0 18.0 0.00 0.06 0.06 22 1010.7
20260503215421 74 307 11.0 15.0 0.00 0.06 0.06 21 1010.7
20260503214919 73 302 6.0 7.0 0.00 0.06 0.06 22 1010.8
20260503214416 73 301 9.0 11.0 0.00 0.06 0.06 22 1011.0
20260503213914 74 273 15.0 16.0 0.00 0.06 0.06 22 1010.9
20260503213411 74 275 10.0 11.0 0.00 0.06 0.06 20 1011.0
20260503212908 74 278 7.0 8.0 0.00 0.06 0.06 22 1011.1
20260503212406 73 246 12.0 13.0 0.00 0.06 0.06 24 1011.2
20260503211902 73 262 11.0 13.0 0.00 0.06 0.06 22 1011.4
20260503211359 73 326 11.0 15.0 0.00 0.06 0.06 23 1011.4
20260503210854 73 305 17.0 18.0 0.00 0.06 0.06 22 1011.3
20260503210352 73 352 6.0 7.0 0.00 0.06 0.06 22 1011.5
20260503205847 73 318 12.0 14.0 0.00 0.06 0.06 23 1011.5
20260503205344 73 299 12.0 14.0 0.00 0.06 0.06 24 1011.7
20260503204840 72 294 11.0 14.0 0.00 0.06 0.06 24 1012.0
20260503204338 73 295 9.0 11.0 0.00 0.06 0.06 22 1011.9
20260503203835 73 285 15.0 16.0 0.00 0.06 0.06 22 1011.8
20260503203332 72 292 5.0 6.0 0.00 0.06 0.06 24 1012.1
20260503202829 74 278 10.0 14.0 0.00 0.06 0.06 24 1011.9
20260503202327 71 287 10.0 14.0 0.00 0.06 0.06 23 1011.9
20260503201825 72 289 18.0 19.0 0.00 0.06 0.06 23 1012.1
20260503201321 72 276 9.0 11.0 0.00 0.06 0.06 26 1012.1
20260503200819 73 315 10.0 13.0 0.00 0.06 0.06 25 1012.2
20260503200315 71 296 9.0 11.0 0.00 0.06 0.06 24 1012.3
20260503195813 72 279 9.0 10.0 0.00 0.06 0.06 24 1012.2
20260503195309 72 280 10.0 10.0 0.00 0.06 0.06 25 1012.3
20260503194806 73 305 10.0 11.0 0.00 0.06 0.06 25 1012.6
20260503194302 72 271 10.0 13.0 0.00 0.06 0.06 24 1012.2
20260503193758 72 323 9.0 11.0 0.00 0.06 0.06 25 1012.6
20260503193254 71 293 12.0 14.0 0.00 0.06 0.06 25 1012.8
20260503192750 71 323 9.0 11.0 0.00 0.06 0.06 28 1012.8
20260503192245 71 256 15.0 17.0 0.00 0.06 0.06 26 1012.8
20260503191743 71 259 17.0 19.0 0.00 0.06 0.06 27 1012.9
20260503191240 71 305 9.0 10.0 0.00 0.06 0.06 28 1012.9
20260503190736 70 244 17.0 18.0 0.00 0.06 0.06 26 1013.0
20260503190233 70 249 9.0 10.0 0.00 0.06 0.06 30 1013.4
20260503185731 70 323 5.0 8.0 0.00 0.06 0.06 30 1013.3
20260503185226 70 290 12.0 15.0 0.00 0.06 0.06 27 1013.1
20260503184721 71 295 10.0 11.0 0.00 0.06 0.06 27 1013.3
20260503184217 70 275 10.0 13.0 0.00 0.06 0.06 30 1013.5
20260503183714 69 276 7.0 8.0 0.00 0.06 0.06 29 1013.7
20260503183211 69 279 7.0 8.0 0.00 0.06 0.06 30 1013.7
20260503182709 70 281 7.0 9.0 0.00 0.06 0.06 28 1013.9
20260503182208 71 283 9.0 11.0 0.00 0.06 0.06 28 1013.9
20260503181703 69 295 13.0 21.0 0.00 0.06 0.06 29 1013.9
20260503181200 69 292 10.0 13.0 0.00 0.06 0.06 30 1014.1
20260503180657 68 301 10.0 11.0 0.00 0.06 0.06 29 1014.1
20260503180156 68 301 8.0 9.0 0.00 0.06 0.06 30 1014.1
20260503175652 69 315 11.0 14.0 0.00 0.06 0.06 30 1014.0
20260503175150 67 336 10.0 13.0 0.00 0.06 0.06 31 1014.2
20260503174646 68 312 10.0 11.0 0.00 0.06 0.06 30 1014.3
20260503174143 67 307 11.0 14.0 0.00 0.06 0.06 31 1014.2
20260503173638 67 279 8.0 9.0 0.00 0.06 0.06 33 1014.4
20260503173135 67 267 11.0 14.0 0.00 0.06 0.06 31 1014.3
20260503172632 68 313 8.0 10.0 0.00 0.06 0.06 34 1014.4
20260503172129 67 272 9.0 10.0 0.00 0.06 0.06 34 1014.4
20260503171625 68 299 8.0 9.0 0.00 0.06 0.06 32 1014.6
20260503171123 66 294 3.0 3.0 0.00 0.06 0.06 38 1014.6
20260503170620 65 288 4.0 7.0 0.00 0.06 0.06 37 1014.7
20260503170116 65 285 10.0 11.0 0.00 0.06 0.06 40 1014.6